TimeEDT,TemperatureF,Dew PointF,Humidity,Sea Level PressureIn,VisibilityMPH,Wind Direction,Wind SpeedMPH,Gust SpeedMPH,PrecipitationIn,Events,Conditions,WindDirDegrees,DateUTC
12:56 AM,39.9,19.9,45,30.40,-9999.0,Calm,Calm,-,N/A,,Unknown,0,2013-04-27 04:56:00
1:56 AM,39.0,21.0,49,30.39,-9999.0,NW,3.5,-,N/A,,Unknown,310,2013-04-27 05:56:00
2:56 AM,33.1,23.0,66,30.40,-9999.0,NE,5.8,-,N/A,,Unknown,40,2013-04-27 06:56:00
3:56 AM,36.0,23.0,59,30.39,-9999.0,NNE,4.6,-,N/A,,Unknown,30,2013-04-27 07:56:00
4:56 AM,37.0,23.0,57,30.39,-9999.0,Calm,Calm,-,N/A,,Unknown,0,2013-04-27 08:56:00
5:56 AM,33.1,23.0,66,30.40,-9999.0,NE,3.5,-,N/A,,Unknown,50,2013-04-27 09:56:00
6:56 AM,37.0,25.0,62,30.41,-9999.0,Calm,Calm,-,N/A,,Unknown,0,2013-04-27 10:56:00
7:56 AM,43.0,28.9,58,30.41,-9999.0,NW,5.8,-,N/A,,Unknown,320,2013-04-27 11:56:00
8:56 AM,46.0,28.9,51,30.41,-9999.0,NNW,8.1,-,N/A,,Unknown,330,2013-04-27 12:56:00
9:56 AM,48.0,26.1,42,30.40,-9999.0,North,6.9,-,N/A,,Unknown,350,2013-04-27 13:56:00
10:56 AM,52.0,24.1,34,30.39,-9999.0,Variable,5.8,-,N/A,,Unknown,0,2013-04-27 14:56:00
11:56 AM,55.0,21.9,28,30.38,-9999.0,Calm,Calm,-,N/A,,Unknown,0,2013-04-27 15:56:00
12:56 PM,57.0,24.1,28,30.35,-9999.0,North,5.8,-,N/A,,Unknown,350,2013-04-27 16:56:00
1:56 PM,55.9,24.1,29,30.34,-9999.0,NW,9.2,-,N/A,,Unknown,320,2013-04-27 17:56:00
2:56 PM,55.0,24.1,30,30.33,-9999.0,NNW,10.4,-,N/A,,Unknown,340,2013-04-27 18:56:00
3:56 PM,55.9,23.0,28,30.31,-9999.0,Calm,Calm,-,N/A,,Unknown,0,2013-04-27 19:56:00
4:56 PM,57.0,25.0,29,30.30,-9999.0,Calm,Calm,-,N/A,,Unknown,0,2013-04-27 20:56:00
5:56 PM,55.0,24.1,30,30.30,-9999.0,Calm,Calm,-,N/A,,Unknown,0,2013-04-27 21:56:00
6:56 PM,53.1,25.0,34,30.30,-9999.0,Calm,Calm,-,N/A,,Unknown,0,2013-04-27 22:56:00
7:56 PM,46.9,26.1,44,30.30,-9999.0,Calm,Calm,-,N/A,,Unknown,0,2013-04-27 23:56:00
8:56 PM,46.0,26.1,46,30.30,-9999.0,Calm,Calm,-,N/A,,Unknown,0,2013-04-28 00:56:00
9:56 PM,39.9,27.0,60,30.31,-9999.0,NE,4.6,-,N/A,,Unknown,40,2013-04-28 01:56:00
10:56 PM,44.1,25.0,47,30.31,-9999.0,NNE,3.5,-,N/A,,Unknown,30,2013-04-28 02:56:00
11:56 PM,39.9,26.1,58,30.32,-9999.0,Calm,Calm,-,N/A,,Unknown,0,2013-04-28 03:56:00